Location: Albany
(35.0000°S, 118.0000°E)
Time: 16:44:10
(UTC-04:00)

Cosmos 1346 Rocket - Visible Passes

Search period start: 31 October 2014 00:00
Search period end: 09 November 2014 23:00
Orbit: 529 x 570 km, 81.2° (Epoch: 31 October)

Date Brightness Start Highest point End Pass type
(mag) Time Alt. Az. Time Alt. Az. Time Alt. Az.
31 Oct 5.0 07:49:08 10° NW 07:52:43 29° WSW 07:56:23 10° SSW visible
01 Nov 5.3 07:44:48 10° NW 07:48:16 26° WSW 07:51:49 10° SSW visible
02 Nov 5.5 06:40:29 10° NW 06:43:49 24° WSW 06:47:13 10° SSW visible
03 Nov 5.8 06:36:11 10° NW 06:39:22 21° WSW 06:42:36 10° SSW visible
04 Nov 6.0 06:31:54 10° WNW 06:34:54 19° WSW 06:37:58 10° SSW visible
05 Nov 6.1 06:27:39 10° WNW 06:30:27 18° WSW 06:33:17 10° SSW visible
06 Nov 6.2 06:23:26 10° WNW 06:25:59 16° WSW 06:28:34 10° SW visible
07 Nov 6.3 06:19:15 10° WNW 06:21:31 14° WSW 06:23:48 10° SW visible
08 Nov 6.5 06:15:08 10° W 06:17:03 13° WSW 06:18:58 10° SW visible
09 Nov 6.8 06:11:08 10° W 06:12:34 12° WSW 06:14:01 10° SW visible
